Find Starlink 3329

NORAD ID: 50827 Int'l Des: 2022-001 Owner: SPXS Country: US Constellation: starlink operational
LEOCIRCULAR

現在のビュー

3D地球を読み込み中...

About Starlink 3329

Starlink 3329 (NORAD 50827) is a starlink constellation satellite (v1.5) launched Jan 6, 2022 by SPXS of US. It operates in LEO, CIRCULAR orbit with a mass of 297.00 kg.

次回通過

Passes for default location (London). Set your location on the main map for personalized predictions.

高度履歴

Loading altitude history...

軌道要素

1 50827U 22001AA 26262.01218463 .00000099 00000-0 14072-4 0 9996
2 50827 53.1615 8.3286 0001154 87.1325 272.9810 15.34386182259768
Epoch: Sep 19, 2026 • Age: 34 hours

現在のステータス

高度 480.2 km
遠地点 / 近地点 N/A
速度 7.62 km/s
衛星直下点 -48.62°S, 148.87°E
打ち上げ日 Jan 6, 2022
運用期間 4.7 years
タイプ internet

技術仕様

分類 Payload
質量 297.00 kg
乾燥質量 275.00 kg
長さ 0.20 m
スパン 9.00 m
形状 ? Box + pan
製造者 SPXS
バスタイプ Starlink
フェーズステータス In Orbit
所有者/国 SPXS/US

Most Searched